Change the Weather History Date:

Tuesday, November 6, 2012

  Actual Average Record
Temperature  
Mean Temperature 34 °F -  
Max Temperature 43 °F 51 °F 62 °F (1999)
Min Temperature 24 °F 34 °F 24 °F (2012)
Degree Days  
Heating Degree Days 32    
Moisture  
Dew Point 18 °F    
Average Humidity 57    
Maximum Humidity 81    
Minimum Humidity 32    
Precipitation  
Precipitation 0.00 in - - ()
Sea Level Pressure  
Sea Level Pressure 30.18 in    
Wind  
Wind Speed 4 mph (NW)    
Max Wind Speed 9 mph    
Max Gust Speed -    
Visibility 10 miles    
Events      
Averages and records for this station are not official NWS values.
T = Trace of Precipitation, MM = Missing Value Source: NWS Daily Summary

Daily Weather History Graph

Daily Weather History Graph

Search for Another Location

Airport or City:

Trip Planner

Search our weather history database for the weather conditions in past years. The results will help you decide how hot, cold, wet, or windy it might be!

Date:

Astronomy

Nov. 06, 2012 Rise Set
Actual Time 6:24 AM EST 4:29 PM EST
Civil Twilight 5:54 AM EST 4:59 PM EST
Nautical Twilight 5:20 AM EST 5:33 PM EST
Astronomical Twilight 4:47 AM EST 6:06 PM EST
Moon 11:07 PM EST (11/6) 12:13 PM EST (11/6)
Length of Visible Light 11h 05m
Length of Day
10h 05m
Waning Gibbous, 53% of the Moon is Illuminated
Nov 6
Waning Gibbous
Nov 6
Last Quarter
Nov 13
New
Nov 20
First Quarter
Nov 28
Full

Hourly Weather History & Observations

Time (EST) Temp. Windchill Dew Point Humidity Pressure Visibility Wind Dir Wind Speed Gust Speed Precip Events Conditions
12:53 AM 30.0 °F 25.2 °F 17.1 °F 59% 30.12 in 10.0 mi WNW 4.6 mph - N/A   Clear
1:53 AM 28.9 °F 23.9 °F 16.0 °F 58% 30.14 in 10.0 mi West 4.6 mph - N/A   Clear
2:53 AM 28.9 °F - 16.0 °F 58% 30.15 in 10.0 mi Calm Calm - N/A   Clear
3:53 AM 27.0 °F 21.6 °F 16.0 °F 63% 30.15 in 10.0 mi WNW 4.6 mph - N/A   Clear
4:53 AM 28.0 °F 20.0 °F 17.1 °F 63% 30.16 in 10.0 mi NW 8.1 mph - N/A   Clear
5:53 AM 27.0 °F 20.5 °F 17.1 °F 66% 30.16 in 10.0 mi WNW 5.8 mph - N/A   Clear
6:53 AM 27.0 °F 21.6 °F 17.1 °F 66% 30.19 in 10.0 mi NW 4.6 mph - N/A   Clear
7:53 AM 32.0 °F 27.5 °F 18.0 °F 56% 30.20 in 10.0 mi WNW 4.6 mph - N/A   Clear
8:53 AM 36.0 °F 30.3 °F 18.0 °F 48% 30.22 in 10.0 mi NNW 6.9 mph - N/A   Clear
9:53 AM 37.9 °F 31.5 °F 16.0 °F 41% 30.22 in 10.0 mi WNW 9.2 mph - N/A   Clear
10:53 AM 37.9 °F - 16.0 °F 41% 30.22 in 10.0 mi Calm Calm - N/A   Clear
11:53 AM 41.0 °F 36.4 °F 17.1 °F 38% 30.19 in 10.0 mi Variable 6.9 mph - N/A   Clear
12:53 PM 39.9 °F - 14.0 °F 35% 30.19 in 10.0 mi Calm Calm - N/A   Clear
1:53 PM 42.1 °F - 14.0 °F 32% 30.18 in 10.0 mi Calm Calm - N/A   Clear
2:53 PM 43.0 °F - 15.1 °F 32% 30.18 in 10.0 mi Calm Calm - N/A   Clear
3:53 PM 37.9 °F 32.7 °F 19.9 °F 48% 30.17 in 10.0 mi ESE 6.9 mph - N/A   Clear
4:53 PM 36.0 °F 32.1 °F 19.9 °F 52% 30.19 in 10.0 mi East 4.6 mph - N/A   Clear
5:53 PM 34.0 °F - 21.0 °F 59% 30.19 in 10.0 mi Calm Calm - N/A   Clear
6:53 PM 30.0 °F - 21.0 °F 69% 30.22 in 10.0 mi Calm Calm - N/A   Clear
7:53 PM 28.9 °F - 21.0 °F 72% 30.21 in 10.0 mi Calm Calm - N/A   Clear
8:53 PM 24.1 °F - 19.0 °F 81% 30.21 in 10.0 mi Calm Calm - N/A   Clear
9:53 PM 25.0 °F - 19.9 °F 81% 30.20 in 10.0 mi Calm Calm - N/A   Clear
10:53 PM 28.9 °F 23.9 °F 21.0 °F 72% 30.18 in 10.0 mi North 4.6 mph - N/A   Clear
11:53 PM 28.0 °F 24.2 °F 21.0 °F 75% 30.18 in 10.0 mi North 3.5 mph - N/A   Mostly Cloudy